Showing default

COSMOS 2532, 43753

Orbit data source: Space-Track

COSMOS 2532, 43753 is a payload satellite owned by VVKO VKS (CIS) in LEO that was launched on Fri, 30 Nov 2018 UTC via an ROKOT launch vehicle from the Plesetsk Missile And Space Complex (PKMTR). Payload-class satellites include a variety of spacecraft equipped with specific instruments for various scientific and technological missions. These include communications satellites like Starlink; space stations such as the ISS; scientific satellites like the Hubble; Earth observation satellites from companies like Planet Labs, Umbra, and HawkEye 360; GPS; miniature CubeSats for education and research; and military/defense satellites.

Loading next visibility...
Identifier
43753, 2018-097C
Orbit
LEO
Last TLE update
10 hours ago
Origin
Manufacturer
Resehetnev ISS
Mission
Operational Defense Communications
Bus & Motor
STRELA-3M, Unknown motor
Mass
280 kg wet, 280 kg dry
Launch date (UTC)
2018-11-30 (6 years ago)
Launch vehicle
ROKOT
Launch site
Plesetsk Missile And Space Complex (PKMTR)
Object type
Payload
Rocket body
Debris
Shape & HBR
Cyl + 1 Ant, 7 m
Radar Cross Section
1.583 m², Large (>1 m²)

Expand to show TLE details & history

TLE from 10 hours ago
0 COSMOS 2532
1 43753U 18097C   25132.87218563  .00000002  00000-0 -58814-4 0  9993
2 43753  82.5100 110.6563 0017169 205.7400 154.2827 12.42857775292543
Epoch: 2025-05-12T20:55Z
Definitive object data (Epoch: 2025-05-12T20:55:56.838Z)
Latitude
-0°
Longitude
-74.20957°
Altitude
1,509.396 km
Speed
7.105 km/s
True Right ascension
07h 22m 37s
True Declination
0° 00' 00"
Sunlit
Object was in daylight at TLE epoch
Visualization TLE readout
Latitude
64.51142°
Longitude
89.59619°
Altitude
1,505.642 km
Speed
7.118 km/s
Apparent Right ascension
00h 42m 40s
Apparent Declination
43° 33' 56"
Sunlit
Object is in daylight
Visualization observer readout
Local Sidereal Time
15:37:12
Azimuth
30.025° NE
Elevation
2.292°
Doppler factor
1
Orbital elements
Apogee altitude
1,505.375 km
Perigee altitude
1,478.351 km
Semi-major axis
7,870 km
Eccentricity
0.0017169
Inclination
82.51°
RAAN
110.6563°
Arg. of periapsis
205.74°
True anomaly
154.36791°
Mean anomaly
154.2827°
Eccentric anomaly
154.32532°
Mean motion
3.10872 °/min
BSTAR
-0.000058814
Orbital period
115.8 mins
Loading maneuver chart data...
Loading SW <> Apogee altitude chart data...
Loading historical data...
Loading historical data...
Loading historical data...
Loading historical data...
Loading historical data...
Loading historical data...
Loading historical data...
Other satellites on launch #97 in the year 2018 (2018-11-30 UTC)

COSMOS 2532 Visibility forecast

Observer location: undefined°, undefined°

Span
Click to sort rows by Start time (UTC) header in descending order
Start Az.
Max El. time (UTC)
Max El. Az.
Max El.
End time (UTC)
End Az.
14 mins2025-05-13 09:08:28.233Z11.485° NNE2025-05-13 09:15:28.233Z71.245° E28.95°2025-05-13 09:22:28.233Z130.503° SE
15 mins2025-05-13 11:05:28.233Z340.083° N2025-05-13 11:12:28.233Z271.806° WNW38.304°2025-05-13 11:20:28.233Z198.419° SSW
14 mins2025-05-13 22:09:28.233Z145.314° SSE2025-05-13 22:15:28.233Z91.165° ESE32.374°2025-05-13 22:23:28.233Z22.714° NE
15 mins2025-05-14 00:05:28.233Z218.877° SW2025-05-14 00:12:28.233Z285.765° WNW35.097°2025-05-14 00:20:28.233Z355.524° N
|